TimeCDT,TemperatureF,Dew PointF,Humidity,Sea Level PressureIn,VisibilityMPH,Wind Direction,Wind SpeedMPH,Gust SpeedMPH,PrecipitationIn,Events,Conditions,WindDirDegrees,DateUTC
12:15 AM,75.2,32.0,21,30.04,10.0,South,18.4,24.2,N/A,,Clear,190,2013-05-14 05:15:00
12:35 AM,73.4,32.0,22,30.04,10.0,SSW,20.7,25.3,N/A,,Clear,200,2013-05-14 05:35:00
12:55 AM,73.4,32.0,22,30.04,10.0,SSW,19.6,24.2,N/A,,Clear,200,2013-05-14 05:55:00
1:15 AM,73.4,32.0,22,30.04,10.0,SSW,17.3,23.0,N/A,,Clear,200,2013-05-14 06:15:00
1:35 AM,71.6,32.0,23,30.04,10.0,SSW,16.1,-,N/A,,Clear,200,2013-05-14 06:35:00
1:55 AM,71.6,32.0,23,30.04,10.0,SSW,18.4,-,N/A,,Clear,200,2013-05-14 06:55:00
2:15 AM,71.6,32.0,23,30.04,10.0,SSW,20.7,25.3,N/A,,Clear,210,2013-05-14 07:15:00
2:35 AM,73.4,32.0,22,30.04,10.0,SSW,21.9,27.6,N/A,,Clear,210,2013-05-14 07:35:00
2:55 AM,71.6,33.8,25,30.04,10.0,SSW,21.9,28.8,N/A,,Clear,210,2013-05-14 07:55:00
3:15 AM,71.6,33.8,25,30.03,10.0,SSW,18.4,25.3,N/A,,Clear,210,2013-05-14 08:15:00
3:35 AM,71.6,33.8,25,30.03,10.0,SSW,17.3,25.3,N/A,,Clear,210,2013-05-14 08:35:00
3:55 AM,69.8,33.8,27,30.03,10.0,SSW,20.7,25.3,N/A,,Clear,210,2013-05-14 08:55:00
4:15 AM,69.8,33.8,27,30.03,10.0,SSW,20.7,25.3,N/A,,Clear,210,2013-05-14 09:15:00
4:35 AM,69.8,33.8,27,30.03,10.0,SSW,19.6,25.3,N/A,,Clear,210,2013-05-14 09:35:00
4:55 AM,68.0,33.8,28,30.03,10.0,SSW,18.4,24.2,N/A,,Clear,210,2013-05-14 09:55:00
5:15 AM,68.0,33.8,28,30.03,10.0,SSW,18.4,-,N/A,,Clear,210,2013-05-14 10:15:00
5:35 AM,68.0,33.8,28,30.03,10.0,SSW,15.0,23.0,N/A,,Clear,210,2013-05-14 10:35:00
5:55 AM,64.4,33.8,32,30.03,10.0,SSW,16.1,-,N/A,,Clear,210,2013-05-14 10:55:00
6:15 AM,64.4,33.8,32,30.04,10.0,SW,13.8,-,N/A,,Clear,220,2013-05-14 11:15:00
6:35 AM,62.6,33.8,34,30.04,10.0,SSW,15.0,-,N/A,,Clear,210,2013-05-14 11:35:00
6:55 AM,64.4,33.8,32,30.04,10.0,SSW,15.0,20.7,N/A,,Clear,210,2013-05-14 11:55:00
7:15 AM,64.4,33.8,32,30.05,10.0,SSW,15.0,-,N/A,,Clear,210,2013-05-14 12:15:00
7:35 AM,66.2,35.6,32,30.05,10.0,SW,16.1,-,N/A,,Clear,220,2013-05-14 12:35:00
7:55 AM,68.0,35.6,30,30.05,10.0,SW,17.3,-,N/A,,Clear,220,2013-05-14 12:55:00
8:15 AM,69.8,37.4,31,30.05,10.0,SW,16.1,21.9,N/A,,Clear,220,2013-05-14 13:15:00
8:35 AM,69.8,41.0,35,30.05,10.0,SW,16.1,-,N/A,,Clear,230,2013-05-14 13:35:00
8:55 AM,71.6,42.8,35,30.06,10.0,SW,18.4,-,N/A,,Clear,230,2013-05-14 13:55:00
9:15 AM,75.2,44.6,34,30.06,10.0,SW,21.9,26.5,N/A,,Clear,230,2013-05-14 14:15:00
9:35 AM,77.0,44.6,32,30.06,10.0,WSW,23.0,32.2,N/A,,Clear,240,2013-05-14 14:35:00
9:55 AM,78.8,44.6,30,30.06,10.0,SW,23.0,26.5,N/A,,Clear,230,2013-05-14 14:55:00
10:15 AM,78.8,44.6,30,30.05,10.0,SW,19.6,27.6,N/A,,Clear,230,2013-05-14 15:15:00
10:35 AM,80.6,44.6,28,30.05,10.0,SW,17.3,28.8,N/A,,Clear,230,2013-05-14 15:35:00
10:55 AM,82.4,44.6,26,30.04,10.0,SW,16.1,26.5,N/A,,Clear,230,2013-05-14 15:55:00
11:15 AM,84.2,42.8,23,30.04,10.0,WSW,17.3,23.0,N/A,,Clear,240,2013-05-14 16:15:00
11:35 AM,86.0,42.8,22,30.04,10.0,SW,19.6,-,N/A,,Clear,220,2013-05-14 16:35:00
11:55 AM,87.8,41.0,19,30.03,10.0,SW,18.4,25.3,N/A,,Clear,220,2013-05-14 16:55:00
12:15 PM,87.8,37.4,17,30.02,10.0,SSW,17.3,24.2,N/A,,Clear,210,2013-05-14 17:15:00
12:35 PM,87.8,39.2,18,30.02,10.0,SW,19.6,26.5,N/A,,Clear,220,2013-05-14 17:35:00
12:55 PM,87.8,39.2,18,30.01,10.0,SSW,20.7,26.5,N/A,,Clear,210,2013-05-14 17:55:00
1:15 PM,89.6,33.8,14,30.00,10.0,South,20.7,26.5,N/A,,Clear,180,2013-05-14 18:15:00
1:35 PM,89.6,33.8,14,29.99,10.0,SSW,18.4,29.9,N/A,,Clear,210,2013-05-14 18:35:00
1:55 PM,89.6,35.6,15,29.98,10.0,SW,17.3,31.1,N/A,,Clear,220,2013-05-14 18:55:00
2:15 PM,89.6,37.4,16,29.98,10.0,SSW,18.4,27.6,N/A,,Clear,200,2013-05-14 19:15:00
2:35 PM,89.6,37.4,16,29.97,10.0,SSW,21.9,29.9,N/A,,Clear,210,2013-05-14 19:35:00
2:55 PM,89.6,35.6,15,29.97,10.0,SSW,15.0,31.1,N/A,,Clear,210,2013-05-14 19:55:00
3:15 PM,89.6,33.8,14,29.96,10.0,SW,20.7,27.6,N/A,,Clear,220,2013-05-14 20:15:00
3:35 PM,89.6,33.8,14,29.95,10.0,SSW,18.4,27.6,N/A,,Clear,200,2013-05-14 20:35:00
3:55 PM,89.6,35.6,15,29.94,10.0,South,15.0,27.6,N/A,,Clear,180,2013-05-14 20:55:00
4:15 PM,89.6,37.4,16,29.94,10.0,SSW,18.4,27.6,N/A,,Clear,200,2013-05-14 21:15:00
4:35 PM,89.6,41.0,18,29.93,10.0,SSW,23.0,27.6,N/A,,Clear,200,2013-05-14 21:35:00
4:55 PM,89.6,41.0,18,29.92,10.0,South,20.7,28.8,N/A,,Clear,190,2013-05-14 21:55:00
5:15 PM,89.6,41.0,18,29.92,10.0,SSW,24.2,29.9,N/A,,Clear,200,2013-05-14 22:15:00
5:35 PM,89.6,41.0,18,29.91,10.0,SSW,20.7,27.6,N/A,,Clear,210,2013-05-14 22:35:00
5:55 PM,89.6,39.2,17,29.90,10.0,SSW,17.3,28.8,N/A,,Clear,210,2013-05-14 22:55:00
6:15 PM,87.8,39.2,18,29.90,10.0,SSW,16.1,25.3,N/A,,Clear,200,2013-05-14 23:15:00
6:35 PM,87.8,39.2,18,29.89,10.0,SSW,18.4,25.3,N/A,,Clear,210,2013-05-14 23:35:00
6:55 PM,87.8,41.0,19,29.89,10.0,SSW,17.3,23.0,N/A,,Clear,200,2013-05-14 23:55:00
7:15 PM,86.0,41.0,20,29.88,10.0,South,17.3,24.2,N/A,,Clear,190,2013-05-15 00:15:00
7:35 PM,86.0,41.0,20,29.89,10.0,SSW,17.3,24.2,N/A,,Clear,200,2013-05-15 00:35:00
7:55 PM,84.2,41.0,22,29.88,10.0,SSW,12.7,20.7,N/A,,Clear,200,2013-05-15 00:55:00
8:15 PM,80.6,42.8,26,29.88,10.0,South,10.4,17.3,N/A,,Clear,180,2013-05-15 01:15:00
8:35 PM,78.8,44.6,30,29.88,10.0,South,11.5,-,N/A,,Clear,170,2013-05-15 01:35:00
8:55 PM,77.0,44.6,32,29.89,10.0,South,10.4,-,N/A,,Clear,170,2013-05-15 01:55:00
9:15 PM,77.0,44.6,32,29.89,10.0,SSE,10.4,-,N/A,,Clear,160,2013-05-15 02:15:00
9:35 PM,75.2,44.6,34,29.89,10.0,SSE,11.5,-,N/A,,Clear,160,2013-05-15 02:35:00
9:55 PM,77.0,46.4,34,29.89,10.0,SSE,12.7,-,N/A,,Clear,160,2013-05-15 02:55:00
10:15 PM,77.0,46.4,34,29.90,10.0,SSE,11.5,17.3,N/A,,Clear,160,2013-05-15 03:15:00
10:35 PM,75.2,48.2,38,29.91,10.0,SSE,11.5,-,N/A,,Clear,160,2013-05-15 03:35:00
10:55 PM,75.2,48.2,38,29.91,10.0,SSE,16.1,-,N/A,,Clear,160,2013-05-15 03:55:00
11:15 PM,75.2,50.0,41,29.91,10.0,SSE,13.8,21.9,N/A,,Clear,160,2013-05-15 04:15:00
11:35 PM,73.4,50.0,44,29.91,10.0,SSE,17.3,23.0,N/A,,Clear,160,2013-05-15 04:35:00
11:55 PM,73.4,51.8,47,29.91,10.0,SSE,18.4,23.0,N/A,,Clear,160,2013-05-15 04:55:00